DECAYED

OBJECT E, 43835 (Decayed)

Orbit data source: Space-Track

You're viewing an Uncataloged Satellite

Recently launched and/or uncataloged satellites may have evolving metadata. Metadata may include but not limited to: Owner, Maufacturer, Bus, Motor, and Mission.

OBJECT E, 43835 was a satellite in LEO that was launched on Fri, 07 Dec 2018 UTC via a CHANG ZHENG 2D launch vehicle from the Jiuquan Satellite Launch Center, China (JSC). Unknown objects in Earth's orbit typically refer to objects detected orbiting the Earth but have not yet been identified or cataloged. These objects could be anything from previously untracked satellites, spent rocket stages, debris from satellite collisions, or even natural meteoroids temporarily captured by Earth's gravity. This object's orbit decayed before it could be identified.

Not visible in the next 10 days
Identifier
43835, 2018-102E
Orbit
Decayed
Last TLE update
5 months ago
Origin
Flag of TBDCTYK (TBD)
Manufacturer
GUOX/CTYK
Mission
Decayed Commercial Communications
Bus & Motor
CUBESAT 3U, Unknown motor
Mass
8 kg wet, 8 kg dry
Launch date (UTC)
2018-12-07 (7 years ago)
Launch vehicle
CHANG ZHENG 2D
Launch site
Jiuquan Satellite Launch Center, China (JSC)
Object type
Unknown
Shape & HBR
Box, 0.3 m
Radar Cross Section
0.080 m², Medium (>0.1 m² and < 1m²)

Expand to show TLE details & history

TLE from 5 months ago
0 OBJECT E
1 43835U 18102E   25041.99831799  .09176430  24949-5  12416-2 0  9991
2 43835  97.3897 134.7164 0010410 287.6962  72.3198 16.35240054342414
Epoch: 2025-02-10T23:57Z
TLE epoch observation values (Epoch: 2025-02-10T23:57:34.674Z)
Latitude
-0.00003°
Longitude
-5.98752°
Altitude
179.674 km
Speed
7.8 km/s
True Right ascension
08h 58m 51s
True Declination
0° 00' 00"
Sunlit
Object was in full shadow at epoch
Visualization orbit readout
Visualization observer readout
Orbital elements
Apogee altitude
182.131 km
Perigee altitude
168.486 km
Semi-major axis
6,553.446 km
Eccentricity
0.00104
Inclination
97.3897°
RAAN
134.7164°
Arg. of periapsis
287.6962°
True anomaly
Unknown
Mean anomaly
72.3198°
Eccentric anomaly
Unknown
Mean motion
4.09109 °/min
Orbital period
88 mins
BSTAR
0.0012416
Loading maneuver chart data...
Loading SW <> Apogee altitude chart data...
Loading historical data...
Loading historical data...
Loading historical data...
Loading historical data...
Loading historical data...
Loading historical data...
Loading historical data...

OBJECT E Visibility

Observer location: undefined°, undefined°

This satellite is decayed
Span
Click to sort rows by Start time (UTC) header in descending order
Start Az.
Max El. time (UTC)
Max El. Az.
Max El.
End time (UTC)
End Az.
|